Regional Weather Roundup
Issued by NWS Newport/Morehead, NC

Current Version | Previous Version | Graphics & Text | Print | Product List | Glossary Off
Versions: 1 2 3 4 5 6 7 8 9 10 11 12 13 14 15 16 17 18 19 20 21 22 23 24 25 26 27 28 29 30 31 32 33 34 35 36 37 38 39 40 41 42 43 44 45 46 47 48 49 50
000 ASUS42 KMHX 222125 RWRMHX WEATHER ROUNDUP FOR EASTERN NORTH CAROLINA NATIONAL WEATHER SERVICE NEWPORT/MOREHEAD CITY NC 500 PM EDT MON MAY 22 2017 NOTE: "FAIR" INDICATES FEW OR NO CLOUDS BELOW 12,000 FEET WITH NO SIGNIFICANT WEATHER AND/OR OBSTRUCTIONS TO VISIBILITY NCZ015>017-031-032-045>047-102-103-222200- NORTH COAST CITY SKY/WX TMP DP RH WIND PRES REMARKS EDENTON PTSUNNY 82 68 62 W14G20 29.93R ELIZABETH CITY CLOUDY 75 70 84 CALM 29.93R KITTY HAWK NOT AVBL MANTEO CLOUDY 76 69 78 S22G28 29.92F $$ NCZ045>047-081-094-103-104-222200- CENTRAL COAST CITY SKY/WX TMP DP RH WIND PRES REMARKS FRISCO CLOUDY 79 68 69 S13 29.96F $$ NCZ095-097-098-100-101-222200- SOUTHERN COAST CITY SKY/WX TMP DP RH WIND PRES REMARKS BEAUFORT MOSUNNY 81 71 71 S18 29.95F CEDAR ISLAND NOT AVBL JACKSONVILLE NOT AVBL PINEY ISLAND CLOUDY N/A N/A N/A SW18G26 29.94 WILMINGTON MOSUNNY 82 70 66 SW15 29.94F $$ NCZ011>013-027>030-043-044-078>080-089-090>093-098-222200- COASTAL PLAIN CITY SKY/WX TMP DP RH WIND PRES REMARKS AHOSKIE N/A 74 67 78 NW3 29.94S CLINTON CLOUDY 80 72 76 CALM 29.93F ELIZABETHTOWN CLOUDY 78 76 94 SE3 29.93F GOLDSBORO PTSUNNY 84 67 56 W10 29.92F GREENVILLE PTSUNNY 82 68 61 NW7 29.95F HAVELOCK NOT AVBL KENANSVILLE MOSUNNY 79 68 69 SW3 29.92F KINSTON NOT AVBL NEW BERN CLOUDY 83 72 69 S12G21 29.93F RICHLANDS LGT RAIN 81 72 74 SW6 29.93F ROCKY MOUNT CLOUDY 81 69 67 NW9 29.94F WASHINGTON SUNNY 83 67 57 W10 29.93R WHITEVILLE CLOUDY 83 71 68 S9 29.92F $$ AMZ130-135-150-152-154-156-158-170-250-252-270-ANZ085-086-088-633-658-670-222200- MARINE OBSERVATIONS STATION/POSITION TIME TEMP WIND PRES WAVE SWELL AIR SEA DIR/SP/G HT/PER HT/PER (UTC) (F) (DEG/KT/KT) (MB) (FT/S) (FT/S) CHESAPEAKE LIGHT NOT AVBL 64 E VA BEACH 2050 70 69 180/ 16/ 17 1014.1 4/ 9 3/ 9 DUCK 2100 69 67 310/ 12/ 15 1013.2 2 E DUCK 2100 67 N/A 4/ 6 OREGON INLET 2100 170/ 17/ 24 N/A 13E OREGON INLT 2048 67 N/A 3/ 8 2/22 HATTERAS CG 2100 78 74 170/ 9/ 14 1014.3 DIAMOND BUOY 2050 77 78 190/ 14/ 17 1014.9 4/ 8 3/ 8 CAPE LOOKOUT 2100 78 200/ 13/ 16 1014.2 BEAUFORT LAB 2100 78 74 200/ 14/ 19 1013.4 30 SE NEW RVR IN 2108 77 77 220/ 14/ 17 1014.4 30 SE NEW RVR IN 2113 77 N/A 3/ 5 27 SE WRIGHTSVLE 2108 76 76 200/ 12/ 16 1013.8 5 SE WRIGHTSVLE 2108 77 75 190/ 10/ 16 1014.0 225 S CAPE HAT 2050 76 79 170/ 4/ 8 1017.5 3/ 8 3/ 8 41 SE CHARLESTON 2110 78 78 190/ 12/ 16 1014.4 $$

USA.gov is the U.S. government's official web portal to all federal, state and local government web resources and services.